User: anonymous   Login
Location: Nebula Knoll Observatory
(43.6666°N, 71.0000°W)
Time: 13:22:50
(UTC-04:00)
Language:

Cosmos 1782 - Orbit

View from above orbital plane
View from above orbital plane
View from above satellite
View from above satellite

Ground track
Ground track

The orbit data is extracted from the following two-line orbital elements,

1 16986U 86074A   16124.18539436  .00001337  00000-0  89609-4 0  9998
2 16986  82.5073 159.9340 0010137 306.1862  53.8427 15.06054767609135
Epoch (UTC): 03 May 2016 04:26:58
Eccentricity: 0.0010137
inclination: 82.5073°
perigee height: 541 km
apogee height: 555 km
right ascension of ascending node: 159.9340°
argument of perigee: 306.1862°
revolutions per day: 15.06054767
mean anomaly at epoch: 53.8427°
orbit number at epoch: 60913

The dashed part of the orbit path shows where the satellite is in the earth's shadow,  

DLR